GFSGL_925_spd_024.txt.gz
Wind_Speed
17 16 16 17 18 22 23 22 22 22 22 21 20 19 17 16 16 20 24 27 32 33 34 36 38 40 43 41 42 44 39 30 9 13 29 32 34 39 39 37 33 33 29
14 13 14 16 19 20 23 23 23 23 23 23 23 21 19 16 16 20 22 23 29 34 36 36 38 37 40 41 40 43 40 42 28 11 26 30 31 40 41 40 38 35 31
16 17 16 16 16 18 20 20 22 24 24 23 23 22 22 22 19 18 21 22 27 32 35 37 38 38 40 38 38 40 42 41 41 24 15 28 27 38 39 37 38 37 32
19 22 24 24 24 24 25 25 26 25 24 24 26 26 25 23 20 21 22 22 25 31 34 35 37 39 40 37 39 41 37 36 35 34 24 24 28 34 38 33 31 36 37
19 23 27 28 29 30 32 32 32 31 30 29 29 29 30 29 27 23 24 24 26 28 30 33 37 39 40 40 38 35 34 34 31 29 24 16 23 21 34 32 30 29 36
22 26 30 31 34 36 35 34 34 35 35 32 33 32 34 33 31 24 25 28 29 31 31 30 31 34 37 40 43 41 38 37 36 32 30 24 29 32 34 31 27 18 10
22 28 30 29 31 33 35 38 39 34 35 35 35 33 32 34 30 30 28 30 32 32 32 32 31 31 31 34 38 44 44 45 46 40 36 37 31 37 37 33 34 30 24
24 26 28 28 30 33 34 35 37 35 36 35 35 35 35 38 32 32 33 33 34 35 35 36 34 34 33 32 31 35 40 43 46 47 44 44 38 37 47 52 50 40 20
23 26 26 27 30 33 33 34 35 34 35 36 37 38 36 40 39 36 34 34 35 37 36 37 37 37 37 33 33 34 37 42 40 45 48 42 40 41 46 37 31 28 9
22 23 25 27 31 32 33 34 35 34 37 37 40 39 40 44 46 45 41 36 36 37 38 36 37 41 40 36 36 36 34 42 32 33 35 40 33 37 45 50 43 35 25
24 28 29 28 28 31 34 34 35 37 38 40 41 44 43 43 47 47 45 41 38 37 37 36 34 34 37 39 41 39 41 35 33 32 34 40 44 42 42 48 46 44 35
26 26 28 30 30 29 31 33 33 33 34 37 38 40 39 39 40 43 43 44 44 42 41 38 36 34 33 34 35 42 44 38 31 30 29 32 36 39 42 40 36 37 35
29 28 28 28 27 27 29 30 30 28 29 30 30 32 34 33 36 39 41 42 43 45 43 41 39 37 35 35 37 39 39 37 33 29 31 33 34 34 32 31 31 33 28
29 28 28 28 29 27 27 27 28 28 28 28 29 31 34 35 35 34 35 35 39 35 32 40 35 32 32 35 35 35 38 35 34 34 29 29 27 28 31 31 29 32 26
27 27 27 26 28 30 29 28 29 31 31 34 34 35 33 32 32 39 41 37 33 38 39 35 27 28 26 27 31 32 33 32 32 33 29 27 28 29 30 31 28 29 28
26 26 27 30 29 29 30 31 31 34 36 39 41 43 42 44 47 45 44 43 41 41 40 35 29 25 23 22 22 24 27 29 30 30 28 28 29 29 27 24 26 28 23
26 29 30 29 28 28 28 30 29 34 36 38 38 39 40 42 41 41 40 39 38 37 35 30 28 26 26 19 20 21 22 28 28 27 29 29 28 28 29 26 25 25 23
27 29 29 28 27 28 29 30 32 31 29 34 38 37 39 38 37 36 34 32 27 28 28 26 26 26 28 22 19 22 22 21 25 24 27 27 31 31 30 27 28 26 23
28 26 26 27 28 29 29 29 30 30 31 33 36 37 37 33 33 33 32 27 23 22 24 26 31 30 31 22 23 25 25 22 24 25 26 29 31 32 29 27 25 24 23
26 25 24 24 26 26 26 28 28 28 29 28 28 28 34 29 25 27 25 23 19 20 20 24 25 18 21 21 24 23 22 23 24 24 24 25 25 27 25 25 25 24 21
25 24 24 22 24 25 26 26 28 27 26 26 27 28 32 26 22 22 20 21 22 26 23 22 20 20 19 23 23 22 20 20 21 22 23 24 26 23 23 24 25 23 23
25 22 22 22 23 24 26 26 25 25 25 25 27 27 27 22 22 23 23 23 25 26 23 14 9 6 10 18 20 21 21 21 22 24 23 25 25 25 26 25 25 23 22
23 24 21 21 21 23 24 24 24 24 24 24 24 24 25 23 23 23 24 25 25 24 22 18 16 16 13 13 15 20 23 22 24 28 27 27 27 26 26 25 25 24 22
20 22 20 20 20 21 21 23 23 23 23 23 24 24 24 24 23 24 25 25 25 25 21 19 17 14 12 11 10 12 16 20 23 26 29 28 26 26 25 24 23 21 21
18 20 20 20 20 20 21 21 22 22 23 23 24 25 25 25 25 26 27 25 27 27 26 23 20 18 15 12 11 11 13 17 20 24 26 27 27 26 25 24 23 21 20
16 18 19 19 20 20 19 20 21 22 22 23 24 24 25 26 26 26 27 28 28 28 27 26 24 24 21 17 14 14 15 17 22 22 25 28 27 25 24 24 23 20 19

GFSGL_925_spd_027.txt.gz
Wind_Speed
11 11 13 15 16 19 21 22 20 21 24 25 23 21 21 21 19 18 18 21 22 24 27 29 32 33 38 40 41 41 41 40 20 26 28 34 34 39 44 46 45 42 41
10 11 13 15 17 17 20 22 22 21 22 24 28 29 27 25 22 20 21 22 23 25 25 28 31 32 35 37 40 38 36 36 33 25 29 31 38 40 43 46 47 45 44
8 10 13 15 18 19 21 24 25 25 25 26 25 26 27 29 30 27 25 24 25 26 26 27 29 30 33 31 34 37 32 32 37 34 27 29 37 36 39 40 44 45 44
12 16 19 23 26 26 27 28 29 29 31 30 30 30 29 31 30 31 32 31 30 29 29 27 28 29 33 32 30 35 35 32 30 33 30 26 28 30 38 31 28 42 47
15 18 23 28 32 33 34 35 35 35 36 36 38 39 38 36 34 31 31 32 35 36 36 34 31 30 31 32 31 29 31 31 29 26 28 24 24 17 32 27 31 30 37
15 19 25 30 32 34 36 39 40 36 35 36 36 36 39 36 29 28 29 32 33 34 35 37 38 35 33 32 33 36 35 30 30 29 27 28 31 28 28 30 28 19 9
14 21 25 27 31 33 34 37 39 37 38 38 37 34 34 36 34 34 33 33 33 33 34 34 35 34 36 35 34 33 36 40 42 37 36 38 28 32 29 30 33 32 26
20 22 24 24 24 28 32 33 34 34 34 36 37 37 37 43 40 37 36 35 34 36 36 37 37 37 36 35 35 34 36 36 42 43 45 46 39 34 41 42 41 42 31
20 20 20 23 30 31 30 31 32 33 35 36 37 39 37 43 40 40 38 37 37 40 39 39 39 40 40 37 35 34 35 37 39 41 47 46 42 38 39 37 33 24 18
15 20 27 29 28 29 29 31 32 31 34 35 38 37 39 43 42 42 40 37 37 37 40 41 42 43 44 42 39 37 33 40 32 35 37 43 46 45 38 44 39 33 29
22 25 24 25 29 30 30 29 30 31 33 33 35 34 34 35 38 36 35 36 35 35 36 37 37 39 42 43 42 41 41 40 33 34 33 33 35 39 44 41 45 42 36
23 26 28 30 29 28 29 32 29 29 30 31 31 32 29 29 31 32 32 33 36 39 38 37 38 41 43 45 44 43 43 43 36 30 30 30 32 33 38 42 41 43 42
23 27 29 29 27 26 27 28 27 26 27 27 27 28 30 31 32 34 35 35 34 36 37 41 47 47 43 46 48 47 42 37 32 31 30 33 33 33 32 33 38 39 38
24 27 26 24 27 24 24 26 26 27 26 26 28 30 32 31 30 29 31 34 38 39 40 41 41 38 41 43 46 39 37 34 31 30 31 31 30 27 29 28 28 29 27
24 24 22 21 22 24 25 27 27 30 29 32 32 33 33 31 32 38 40 38 35 34 36 34 32 29 29 31 29 25 23 26 29 34 31 28 27 26 27 28 28 24 22
24 20 22 22 22 24 25 27 30 30 32 34 36 37 37 39 41 40 41 41 40 40 36 29 28 27 26 26 26 22 22 26 31 33 32 27 24 26 27 26 28 28 25
23 23 22 22 22 24 24 25 25 37 34 33 32 34 35 38 40 40 40 37 36 36 27 25 25 26 27 25 23 26 24 25 25 28 27 27 26 27 28 27 26 25 23
22 24 22 21 22 25 25 26 26 25 27 35 39 34 34 35 36 37 36 34 28 29 28 28 26 26 24 21 25 22 24 25 23 26 26 25 26 28 24 25 26 26 26
21 20 21 22 22 24 25 24 24 25 26 29 32 34 32 35 35 32 27 23 22 23 26 26 27 26 26 26 28 28 28 28 25 24 25 22 23 25 25 27 28 29 26
19 19 20 20 21 23 22 21 23 24 25 26 27 28 34 30 28 29 26 24 22 24 27 25 28 27 27 25 29 29 28 29 23 24 23 22 25 27 26 24 25 23 24
17 21 19 18 20 20 20 20 20 22 23 24 26 28 30 26 24 25 25 25 25 26 28 29 27 14 21 25 24 22 20 18 20 18 18 20 21 20 20 21 22 22 21
15 16 19 18 19 20 20 19 18 20 22 23 26 27 27 24 24 25 25 26 26 25 26 26 24 23 20 16 8 6 12 15 16 17 17 18 19 20 21 21 20 21 22
11 14 16 17 18 19 19 19 19 19 21 22 24 25 26 25 25 26 27 27 28 28 30 29 30 27 22 18 13 6 5 8 11 16 20 20 20 21 22 21 21 20 20
9 11 12 14 16 18 19 20 20 20 21 21 22 23 24 25 25 26 27 28 29 29 30 30 29 28 25 21 17 12 7 5 9 13 18 21 20 20 20 19 18 19 21
7 9 10 12 13 15 17 18 19 20 21 20 21 22 24 24 25 27 28 30 29 29 30 29 29 27 28 24 19 15 11 7 7 10 14 19 21 21 20 20 20 19 20
6 7 9 10 11 13 14 16 18 18 20 21 22 23 23 25 26 27 28 29 29 29 29 28 27 28 28 25 24 20 15 10 9 10 14 19 23 23 22 22 22 21 22

GFSGL_925_spd_030.txt.gz
Wind_Speed
11 12 14 16 17 17 19 20 22 24 25 25 28 28 28 29 26 26 26 28 28 26 23 25 26 25 27 30 29 30 29 27 18 29 31 32 33 35 35 40 46 47 46
6 7 9 12 15 18 20 22 24 26 27 28 29 29 30 32 32 32 32 29 29 31 31 29 28 27 27 28 30 31 31 31 28 25 26 32 33 34 36 40 43 47 48
3 5 7 11 15 19 21 23 25 26 28 29 29 31 33 33 36 36 36 36 35 32 30 30 32 30 29 29 31 30 28 28 30 29 26 29 33 32 32 37 40 43 45
3 6 11 14 19 24 26 27 28 28 30 32 33 35 36 38 39 40 38 37 38 36 34 35 34 33 34 32 30 32 30 28 26 27 26 25 31 34 33 28 30 40 43
7 9 11 16 23 27 29 31 31 32 32 33 33 36 35 33 31 29 29 31 33 34 35 35 33 34 35 34 32 31 30 27 24 23 23 21 22 20 22 24 29 26 38
7 8 14 20 25 28 30 31 34 37 38 36 33 31 32 31 28 29 29 31 32 32 34 34 35 35 35 32 33 33 32 30 27 24 24 23 27 26 28 28 26 20 8
9 12 17 21 23 24 28 34 38 38 36 35 34 32 35 36 32 32 33 34 33 33 34 35 35 34 34 34 34 34 36 36 37 35 32 32 26 27 26 28 28 28 30
10 14 17 18 22 28 34 34 36 34 32 32 33 33 35 36 33 35 35 36 35 35 34 35 36 38 37 35 35 36 37 36 38 39 39 42 37 32 32 33 34 39 34
12 12 14 19 26 27 30 32 32 33 34 34 31 32 33 35 33 33 33 33 34 36 36 36 37 38 39 38 39 39 39 41 40 38 41 43 40 39 35 31 29 23 18
10 14 21 22 24 26 29 31 31 31 30 30 31 30 32 34 32 30 29 30 32 32 33 34 34 38 40 40 40 39 38 42 37 37 36 39 42 42 40 40 34 30 27
12 17 19 21 23 25 27 28 30 31 30 30 30 29 29 29 31 28 28 30 29 32 32 32 32 35 40 40 40 41 40 40 39 40 38 36 35 33 36 38 39 38 32
14 16 18 20 21 23 25 29 30 28 26 27 27 27 26 28 29 30 30 31 33 35 34 34 35 35 36 37 40 45 47 43 39 38 35 34 35 32 32 33 35 38 43
13 15 18 20 20 21 24 29 27 23 22 23 23 26 28 29 31 32 33 34 35 36 37 38 41 43 44 42 38 38 42 40 36 35 33 35 35 36 31 31 32 34 35
14 16 19 20 22 22 23 26 22 24 21 24 26 27 28 28 29 28 31 35 37 37 39 42 45 42 40 41 38 35 34 34 35 38 38 32 31 29 31 32 30 29 29
13 16 18 19 21 23 22 24 23 25 25 29 28 29 29 29 30 36 38 36 36 37 42 37 32 28 28 29 30 30 31 32 34 40 41 32 29 23 28 30 31 27 24
12 15 17 19 20 20 21 24 26 23 26 28 29 29 31 33 35 38 38 38 39 39 40 29 27 27 28 29 29 27 28 30 30 30 26 25 19 17 24 28 29 28 22
11 15 17 18 19 18 20 20 22 35 29 23 22 26 28 31 32 34 36 37 35 33 25 25 26 27 29 30 29 27 27 28 28 27 23 22 22 25 27 26 25 27 23
11 13 15 16 18 20 20 21 21 20 24 36 31 26 27 28 31 33 30 29 27 25 22 24 26 29 30 30 27 25 23 25 25 23 22 19 21 23 25 26 23 24 23
11 13 13 15 17 19 20 21 19 19 22 24 29 30 32 29 29 24 24 21 22 23 24 26 27 31 31 31 28 26 26 28 29 26 25 23 22 22 22 22 24 26 25
10 10 11 15 16 17 17 18 18 18 20 21 22 23 33 29 30 30 27 25 24 24 25 27 29 30 29 27 26 26 26 26 27 27 27 26 22 20 18 17 20 21 22
10 10 11 12 13 14 15 17 17 18 19 20 22 22 24 24 23 24 26 26 25 26 27 27 28 29 28 29 28 24 22 24 23 24 25 25 21 19 20 19 20 21 20
9 9 10 11 10 11 12 13 14 16 18 19 21 22 21 22 22 23 25 26 27 26 27 27 27 28 29 28 28 25 22 17 14 6 9 12 13 12 14 15 14 14 17
9 8 8 8 8 8 10 10 12 13 16 17 19 22 23 24 25 25 27 28 29 29 29 28 28 29 31 30 26 24 22 19 14 6 1 4 8 11 14 15 16 16 17
8 8 8 7 7 7 8 10 10 12 14 16 17 19 20 22 24 25 26 27 28 28 28 29 30 31 32 31 28 25 21 17 13 9 3 6 11 13 15 16 15 16 17
7 8 7 7 7 8 9 9 10 12 13 15 17 18 20 21 23 24 25 26 27 27 28 28 28 29 31 31 27 27 22 18 15 11 8 8 11 13 16 18 18 18 19
8 9 8 8 8 8 9 10 12 14 15 17 18 18 19 21 22 24 25 26 26 26 26 25 25 25 27 29 27 25 23 20 16 12 10 12 14 16 18 20 21 21 20

GFSGL_925_spd_033.txt.gz
Wind_Speed
10 10 10 11 13 14 16 17 19 20 21 23 24 26 28 29 29 30 30 31 31 32 31 29 29 27 25 24 22 22 25 26 17 29 29 28 31 34 38 39 37 38 40
6 5 6 8 11 15 17 18 20 22 23 24 27 29 31 33 34 35 36 35 34 34 33 33 33 30 30 29 27 26 25 26 26 23 29 27 30 32 34 37 39 40 41
3 0 3 6 9 13 17 20 22 23 24 26 29 31 34 35 37 37 36 36 34 33 34 32 32 31 32 30 29 28 28 27 27 25 28 28 31 32 34 36 37 39 41
8 5 4 6 10 14 19 22 24 25 29 33 36 37 36 34 30 29 28 29 30 30 31 30 31 30 29 28 28 27 27 26 25 25 25 25 26 27 30 27 29 36 40
9 7 6 8 12 17 21 24 26 29 32 34 35 37 34 30 25 26 27 29 30 32 32 31 30 30 29 29 29 28 27 26 25 24 24 22 22 20 23 24 26 25 35
11 9 7 11 16 20 23 26 30 33 34 36 35 33 31 25 25 28 29 32 32 32 34 34 33 32 31 31 31 30 30 30 30 28 28 25 26 22 26 26 25 19 8
11 9 12 15 18 21 24 28 31 33 35 35 33 30 30 28 25 28 30 32 33 34 33 33 33 31 31 30 30 33 34 35 38 38 36 35 31 28 25 28 28 26 27
11 11 14 16 18 22 26 28 30 31 33 33 34 33 28 28 29 30 30 31 30 30 30 30 30 31 31 32 34 36 36 37 37 35 36 42 38 35 33 33 32 34 32
11 12 13 15 19 21 22 25 27 30 32 33 27 29 31 33 28 29 30 29 29 29 29 27 27 28 29 29 32 33 36 40 36 40 44 47 46 44 39 32 30 25 21
12 12 14 16 17 19 21 23 25 26 30 28 29 30 32 33 29 27 27 28 29 28 28 28 27 29 30 29 31 31 33 32 31 31 34 39 43 45 43 43 39 30 27
12 13 13 13 15 17 19 20 23 26 27 30 30 30 30 30 32 27 28 29 28 30 29 27 27 31 31 31 31 32 32 35 37 39 40 38 38 39 39 40 43 41 33
13 12 12 12 13 16 18 20 22 24 26 27 27 27 27 31 30 28 29 30 32 33 31 32 33 34 34 34 35 37 39 37 32 29 28 33 37 34 37 39 39 40 42
13 11 11 12 13 14 17 20 23 22 22 20 20 23 27 31 32 29 30 31 32 35 35 36 40 40 39 38 36 36 36 34 32 31 32 34 38 41 42 39 37 38 40
12 11 11 12 13 13 15 18 20 22 20 18 22 25 27 26 26 29 33 34 32 32 33 37 38 37 37 39 36 35 33 33 33 34 34 37 37 37 41 43 35 33 32
11 11 11 12 13 15 15 17 19 21 19 23 24 26 27 27 29 34 35 34 34 35 39 31 28 27 27 23 24 29 32 33 32 35 33 33 34 33 37 43 38 32 27
12 11 11 12 13 15 16 22 17 16 17 20 22 22 25 28 31 32 33 34 34 32 30 23 23 23 23 24 26 29 29 29 30 31 31 32 32 34 39 36 29 30 26
12 11 11 12 13 14 15 17 21 26 19 13 14 19 21 24 27 29 29 28 27 23 20 21 21 23 24 25 26 27 29 32 31 30 29 29 29 33 24 31 28 17 15
13 11 11 12 12 13 14 16 17 17 21 32 24 20 19 22 24 25 24 25 29 25 19 21 24 25 26 27 29 28 31 32 29 26 25 26 25 26 20 16 16 17 17
15 13 12 12 11 12 13 16 15 16 17 21 28 26 24 23 23 21 20 22 21 23 24 24 24 26 27 28 29 30 30 31 31 27 25 24 24 23 24 18 16 22 25
14 13 12 12 12 12 11 13 13 14 17 18 20 22 26 24 31 29 27 25 22 22 23 25 27 27 28 28 30 29 29 30 31 23 24 24 24 22 21 22 19 19 17
15 14 13 13 13 11 10 10 11 13 16 17 20 18 17 20 23 25 26 26 25 26 26 27 28 28 29 29 29 29 28 27 27 27 19 22 23 22 22 24 21 17 12
16 15 15 14 12 12 10 10 10 11 13 15 18 18 16 18 20 23 24 26 27 26 26 27 29 29 29 30 30 29 28 27 28 27 25 20 14 10 10 12 12 12 13
16 16 15 14 12 11 11 10 10 10 11 13 15 17 19 20 21 22 23 25 26 27 27 27 28 30 31 31 30 28 27 27 27 23 21 17 12 8 3 4 8 10 12
17 17 15 14 12 11 11 10 10 10 12 14 14 16 18 20 22 23 24 25 26 26 26 27 26 28 30 30 31 33 27 26 23 20 16 12 10 8 8 9 10 12 14
16 15 15 14 13 12 11 12 12 12 13 15 16 17 19 20 22 23 24 24 25 26 26 26 26 27 27 27 30 30 28 28 21 18 14 11 11 11 11 13 14 16 16
14 15 15 14 14 13 13 14 15 15 16 17 17 18 19 20 21 22 23 24 26 27 26 25 24 24 23 22 26 29 26 25 22 18 14 14 14 15 16 16 17 17 17

GFSGL_925_spd_036.txt.gz
Wind_Speed
10 10 10 10 10 11 13 15 17 17 19 20 23 25 28 31 31 32 32 32 32 33 31 30 31 29 28 26 26 26 27 24 15 27 27 30 31 32 31 31 32 34 37
8 7 5 5 6 8 11 13 15 16 17 20 22 26 29 31 32 33 34 34 33 34 33 32 32 31 32 32 30 28 27 27 24 22 28 27 27 30 31 30 30 32 36
8 6 3 1 4 7 10 14 17 19 22 25 29 30 32 33 33 33 31 31 32 33 33 30 28 27 27 26 28 29 26 25 25 24 27 28 29 25 29 31 30 31 34
10 7 5 4 5 8 12 15 19 21 24 28 30 30 31 31 32 26 24 26 28 28 29 28 28 27 27 26 26 27 26 26 25 25 24 24 25 24 25 26 27 30 33
14 13 10 8 7 9 12 17 20 22 25 27 29 31 31 30 24 26 28 28 29 30 29 28 27 27 29 30 31 29 28 28 26 24 24 24 21 20 21 19 25 22 30
18 17 14 11 9 11 15 18 20 23 26 27 28 29 31 27 24 23 25 29 30 29 30 29 29 30 29 30 31 31 32 31 27 23 24 25 28 23 24 25 25 21 9
21 18 16 12 11 13 17 19 22 24 26 27 28 29 30 31 23 25 25 27 29 28 28 28 29 27 28 28 29 30 32 31 33 34 33 32 32 29 28 27 26 26 29
21 19 16 13 13 15 17 19 22 24 25 27 27 26 30 31 25 25 25 27 25 25 25 26 27 28 27 28 30 30 29 28 27 29 31 35 34 34 33 33 34 37 38
22 20 16 14 14 16 18 20 21 23 24 25 24 28 28 30 26 24 24 26 24 25 25 26 28 29 29 28 31 30 28 27 27 30 34 35 34 34 36 37 34 28 26
23 19 15 13 15 17 18 19 19 20 23 24 27 25 26 28 25 22 23 25 25 26 28 28 27 28 29 29 31 30 29 29 29 32 34 34 34 33 34 34 32 30 32
19 16 14 14 15 16 17 16 19 20 22 24 25 26 26 25 29 22 23 26 26 28 26 26 28 31 31 31 31 31 32 35 35 35 32 30 28 28 29 29 34 35 34
17 15 14 14 14 15 16 16 17 19 22 22 25 28 26 28 26 23 25 25 28 30 31 31 32 34 35 36 38 37 38 37 30 28 30 30 30 31 33 33 35 39 43
17 16 15 15 14 14 16 16 18 18 19 21 22 24 27 28 27 23 26 29 31 32 31 34 38 37 36 35 33 33 34 33 31 28 28 31 31 34 35 35 36 38 44
17 16 14 15 14 14 15 16 17 18 18 19 20 23 24 22 23 27 30 27 30 32 30 24 28 32 30 29 28 26 28 27 27 29 31 33 34 33 32 31 33 33 32
17 15 15 15 15 16 16 16 17 17 17 18 20 21 20 20 23 27 29 31 31 31 34 30 30 25 22 22 23 23 24 25 26 28 30 31 32 31 31 30 31 32 30
17 16 16 16 15 16 17 19 15 15 15 16 17 16 18 19 21 24 27 27 28 27 25 25 21 20 21 22 24 26 26 25 26 27 28 29 29 29 29 30 31 32 30
18 17 17 17 17 17 17 16 20 16 12 9 8 12 14 17 19 21 23 24 22 20 24 22 19 20 22 24 24 24 27 28 29 28 29 30 29 27 27 28 30 32 23
18 18 18 18 17 17 17 17 16 17 19 20 14 13 12 14 16 18 19 21 27 24 22 22 23 24 24 24 26 26 28 29 29 29 30 30 28 24 24 24 26 25 24
19 20 19 18 18 18 17 17 16 16 17 19 20 16 14 15 13 15 14 19 22 25 25 24 24 25 26 26 27 28 28 29 30 30 30 30 25 22 23 23 24 26 25
21 21 20 19 18 18 17 17 16 15 16 16 17 17 18 18 22 21 20 21 21 22 25 26 27 28 27 28 29 29 29 29 29 28 28 28 28 22 23 23 22 21 19
22 20 20 20 20 19 18 18 16 15 16 16 16 13 13 18 20 20 21 22 22 24 25 26 28 29 29 29 29 29 28 28 29 28 28 28 27 25 21 23 24 23 22
22 21 21 21 19 19 19 18 17 17 16 17 16 14 11 14 16 18 20 21 23 23 23 24 26 27 28 30 32 33 30 30 29 29 29 29 27 25 25 22 18 15 14
17 20 21 20 19 19 18 18 18 17 17 17 16 16 16 16 17 18 20 21 23 23 23 23 25 27 26 28 29 32 31 33 30 30 28 28 26 24 22 18 16 11 6
16 18 19 20 19 19 19 18 17 17 17 17 16 16 17 18 19 19 19 21 22 24 24 24 24 24 26 27 27 30 30 34 30 28 24 22 21 21 18 15 12 11 9
18 19 20 20 19 19 18 18 18 18 18 18 18 18 19 19 19 19 19 20 21 23 24 24 23 24 24 24 24 27 26 30 28 25 21 19 17 16 16 15 14 13 12
16 17 18 18 18 18 18 19 20 19 19 19 18 19 19 20 20 20 20 21 22 23 24 23 23 22 22 22 21 21 24 26 26 23 20 19 19 18 17 17 16 16 16

GFSGL_925_spd_042.txt.gz
Wind_Speed
16 16 16 15 14 12 10 9 8 6 4 3 5 6 8 10 11 11 10 10 11 12 12 13 15 16 16 18 18 19 20 20 22 31 28 28 33 31 31 28 30 31 30
17 18 17 16 15 12 10 8 6 3 2 3 5 7 9 10 12 11 11 11 12 13 15 15 17 17 19 19 19 21 23 24 25 29 32 28 28 30 30 32 31 30 32
21 21 18 17 16 14 11 8 5 2 1 4 6 8 10 11 11 10 12 13 13 13 14 16 17 18 20 19 21 23 24 25 26 28 34 29 29 29 31 30 29 28 28
23 21 20 19 17 15 13 9 6 3 3 5 7 9 10 12 11 11 12 12 13 13 15 16 17 18 20 22 23 23 24 25 26 27 30 31 28 27 27 28 28 24 24
27 23 22 20 18 17 14 11 7 6 6 6 8 9 10 11 10 11 12 13 15 16 16 16 17 19 20 21 22 24 25 26 26 26 28 29 27 24 22 22 25 28 31
26 26 23 22 22 19 17 13 11 9 8 8 9 10 10 10 12 12 12 14 15 16 17 18 18 19 19 21 22 23 25 28 27 25 27 27 30 27 25 26 26 26 19
35 33 31 26 24 22 19 16 14 12 12 10 10 10 11 12 13 11 12 13 15 15 17 18 20 19 20 21 23 25 24 24 26 29 30 30 31 29 28 28 28 27 28
34 35 32 29 28 25 22 20 17 14 13 11 11 11 11 12 12 12 12 14 14 15 17 18 21 22 22 25 27 29 29 27 28 29 31 33 33 33 32 33 33 33 31
32 35 32 32 31 28 26 22 18 15 14 13 12 12 13 13 13 12 13 13 14 16 17 19 21 24 24 28 32 31 32 33 34 34 35 37 36 34 33 32 28 25 23
31 31 32 33 32 31 25 21 18 17 16 14 13 14 14 14 12 12 11 12 15 17 19 20 21 25 28 30 33 34 34 28 27 32 34 36 36 34 31 30 30 27 25
25 26 27 28 29 27 23 21 18 17 16 15 15 15 14 13 12 12 10 12 15 19 22 23 23 26 29 32 34 35 34 37 34 30 28 27 26 26 25 25 27 29 28
24 24 25 26 25 24 22 20 18 17 16 15 15 15 13 12 12 11 11 12 15 19 22 23 23 27 33 32 32 29 29 29 25 23 22 23 23 24 24 24 25 27 30
22 24 24 24 23 22 21 20 17 17 16 14 13 11 11 11 11 12 10 12 15 19 21 22 25 27 26 23 23 25 22 18 20 21 21 23 22 24 26 26 26 27 31
23 23 23 24 23 22 20 19 19 18 15 13 12 12 11 10 10 9 10 14 14 19 14 19 23 24 18 18 20 19 18 17 19 21 21 23 24 24 24 22 24 25 25
22 22 22 22 21 19 20 19 19 19 19 16 16 14 11 13 11 11 14 16 18 15 19 23 20 16 17 17 18 17 18 18 19 19 21 23 24 23 24 23 23 24 23
21 20 20 19 18 18 16 17 21 21 18 17 18 19 17 18 15 15 16 17 17 13 13 13 14 14 15 17 19 20 18 19 19 22 22 22 23 24 25 26 24 24 24
20 18 18 19 16 16 16 15 14 13 16 16 16 17 17 17 16 16 16 16 13 14 11 11 13 13 15 16 17 18 22 22 22 21 23 24 24 25 25 25 25 25 24
15 14 14 13 14 13 13 13 13 13 14 12 14 14 13 15 15 15 15 14 14 12 11 11 12 13 14 16 17 18 21 24 23 23 24 24 24 24 25 25 25 24 25
10 11 12 13 13 13 12 12 13 13 13 13 14 16 14 12 12 13 12 12 11 11 11 12 13 13 14 16 17 18 20 23 25 26 24 25 24 24 25 25 26 28 27
10 11 12 11 11 12 12 13 14 14 14 14 13 14 12 11 11 11 14 13 13 14 14 15 16 16 16 16 17 18 20 22 23 23 24 25 25 25 24 25 25 25 25
9 11 12 12 12 12 13 14 14 15 15 15 15 14 14 13 12 13 11 13 15 16 17 18 18 19 18 18 17 16 19 22 24 24 24 26 25 27 25 24 25 25 25
8 10 11 12 12 12 13 13 14 15 16 16 15 14 13 15 15 14 13 15 16 17 18 19 20 19 19 19 19 18 19 23 25 26 26 28 25 25 24 24 23 23 23
7 8 9 10 11 12 13 14 14 15 16 16 15 14 12 12 13 15 16 17 18 18 18 18 19 20 20 19 19 19 20 23 24 26 26 27 25 23 23 22 21 21 20
6 7 9 9 10 11 11 13 14 16 17 15 14 14 13 14 15 16 18 19 19 19 18 18 18 19 20 19 19 19 19 19 22 23 22 23 22 22 20 20 19 19 19
7 8 9 10 10 11 11 13 13 13 13 13 13 13 14 15 17 19 19 19 19 19 19 19 19 19 20 19 18 17 17 16 17 17 17 18 18 18 18 17 19 17 19
10 11 12 12 11 10 11 12 13 12 12 12 12 12 13 15 17 19 19 19 19 20 20 20 21 20 19 19 17 16 16 15 15 16 16 15 14 15 16 15 18 16 17

GFSGL_925_spd_045.txt.gz
Wind_Speed
16 16 16 16 14 14 13 12 10 8 7 5 2 1 2 4 6 6 6 8 9 10 10 11 12 12 13 15 16 17 18 18 21 36 29 29 29 31 33 32 32 31 34
18 18 16 15 15 14 13 12 11 9 7 6 2 1 2 4 6 6 6 8 9 10 11 12 12 13 15 15 16 18 20 21 23 29 35 30 28 30 33 37 35 31 31
21 19 17 17 17 16 14 13 12 11 9 6 4 3 4 5 6 6 7 8 9 10 11 13 14 15 16 16 17 19 20 21 22 25 36 30 30 29 31 32 32 34 31
23 22 21 20 18 17 17 16 14 12 11 8 6 5 5 7 7 8 9 9 11 11 12 13 13 14 15 17 18 18 19 21 23 25 29 32 29 29 28 28 29 28 31
25 24 24 23 21 19 19 19 17 15 12 10 8 6 7 8 9 10 10 10 12 12 12 13 14 15 16 17 18 20 21 21 23 25 27 28 27 27 25 27 28 31 30
27 27 25 24 24 25 24 22 19 16 14 12 10 9 9 10 12 12 11 11 12 12 13 13 14 16 15 17 18 19 21 25 26 26 27 26 30 30 29 28 27 27 21
30 30 29 28 29 29 26 23 22 19 16 15 12 12 12 12 14 12 12 12 12 13 14 14 15 14 17 18 20 22 24 24 28 32 33 32 32 30 31 31 28 28 29
32 31 33 32 32 30 27 26 23 21 20 16 15 14 14 14 15 14 13 13 13 14 14 14 15 17 17 20 25 27 28 28 30 32 34 36 35 36 35 36 35 36 35
31 32 35 36 35 32 31 30 26 22 20 18 17 16 17 16 16 15 12 13 13 14 14 14 15 18 18 22 26 28 30 28 28 29 33 39 40 39 37 35 28 25 24
31 33 34 35 35 34 36 32 27 23 21 19 19 18 18 19 16 16 13 13 15 15 14 14 16 17 19 23 26 29 31 31 33 33 32 31 32 31 29 30 30 27 26
27 28 29 30 32 32 32 29 26 23 20 20 20 20 20 20 19 16 14 14 14 15 16 16 16 17 20 24 28 27 27 31 31 30 29 27 25 24 23 22 23 25 26
23 24 25 26 26 28 28 27 25 22 22 21 20 20 20 20 19 16 14 15 15 18 19 18 18 18 20 26 25 22 24 25 23 22 23 24 24 24 23 23 26 29 29
21 22 23 22 23 24 24 26 23 22 22 20 19 18 17 17 18 15 15 15 15 17 19 19 19 17 21 21 17 19 18 17 18 20 22 23 23 26 28 27 27 27 27
20 20 20 21 22 23 23 24 24 24 23 22 18 18 17 16 16 15 14 13 14 15 17 18 16 17 16 15 15 14 15 15 17 20 21 25 27 26 26 24 26 26 26
18 20 20 21 23 24 25 26 27 26 24 22 21 20 16 15 15 14 13 14 15 18 14 16 18 18 14 13 13 14 15 16 17 18 21 24 26 25 26 25 24 25 24
20 19 19 20 19 20 18 18 19 19 16 18 18 19 20 18 16 16 18 18 19 16 13 15 14 13 13 13 13 15 15 16 16 20 21 22 24 25 25 27 25 23 24
17 14 13 14 12 12 12 12 10 11 15 19 20 22 23 24 22 22 21 19 19 15 15 14 14 13 13 13 14 15 17 17 20 19 20 23 24 24 25 25 25 24 25
11 8 8 7 8 8 9 9 10 11 12 14 14 17 19 20 21 21 21 21 17 14 17 16 15 15 15 14 15 16 18 20 20 20 22 23 24 24 25 24 25 24 25
7 5 6 6 6 7 7 8 10 12 14 16 16 17 19 18 20 21 21 22 18 16 17 17 16 17 17 17 18 19 20 21 22 23 22 22 24 24 25 25 26 27 26
5 5 4 3 4 5 7 8 10 12 14 15 16 17 15 17 19 20 21 21 21 21 19 19 18 18 19 18 19 20 21 21 21 21 23 23 24 24 25 26 26 26 26
3 2 3 4 5 7 7 9 11 13 15 17 18 16 18 21 19 16 16 17 18 20 19 19 19 19 19 19 18 19 20 21 22 22 23 24 24 26 25 25 25 25 25
0 2 3 4 6 6 8 9 11 13 15 17 18 18 19 22 20 20 17 16 20 21 20 20 20 20 19 19 18 20 21 22 22 21 23 25 27 27 24 25 24 24 24
1 2 3 4 5 6 7 9 10 13 15 17 18 18 18 18 18 19 18 18 21 21 20 20 20 21 20 19 19 19 21 22 21 21 23 25 26 25 24 24 23 23 22
1 0 2 3 4 6 7 9 11 14 17 18 20 19 19 18 18 18 18 19 20 21 20 20 20 20 20 20 20 20 21 20 19 21 20 22 23 21 23 22 22 23 21
2 3 4 4 6 7 9 11 12 14 15 16 17 18 18 18 18 19 19 20 20 20 21 21 21 21 20 21 21 20 20 18 18 18 17 19 20 19 17 18 19 20 21
4 6 6 6 8 9 11 12 14 15 15 16 17 17 17 17 18 18 18 19 20 20 20 21 21 21 21 22 21 20 18 17 17 16 14 19 18 16 14 15 16 17 18

GFSGL_925_spd_048.txt.gz
Wind_Speed
25 24 24 23 23 21 19 18 16 15 12 10 7 6 4 2 3 3 3 4 6 6 7 8 9 10 12 14 14 13 14 15 17 40 25 27 31 28 33 36 35 33 33
26 26 25 24 23 21 19 18 17 14 12 9 8 6 3 1 1 2 3 5 6 7 8 10 11 11 14 15 14 16 18 17 19 28 29 29 28 28 30 33 34 32 31
27 26 24 24 23 22 21 19 17 15 14 12 10 7 6 4 3 4 5 6 7 9 10 11 13 13 14 15 16 19 18 16 18 22 32 28 29 27 29 30 30 32 29
29 28 28 27 26 24 22 21 19 17 15 13 11 10 7 5 5 6 7 7 9 11 12 12 13 13 15 17 18 18 16 22 20 22 26 28 28 28 27 27 31 28 32
32 31 31 27 25 23 23 21 20 18 17 14 13 11 9 9 8 9 8 9 12 14 14 14 14 14 14 13 15 18 20 22 24 23 25 28 28 28 26 29 30 32 33
34 34 31 28 27 26 25 25 23 22 20 18 16 14 13 12 12 11 11 12 13 15 16 16 16 16 15 13 15 15 17 22 26 25 26 26 32 31 31 30 32 30 27
35 33 32 31 31 31 29 28 26 25 22 20 18 17 16 15 15 13 14 14 15 16 17 18 17 16 15 18 16 18 21 20 24 29 31 31 35 33 35 35 33 33 35
35 34 33 33 34 33 32 30 28 27 25 23 22 20 19 18 17 16 15 16 18 19 18 19 19 19 16 16 20 23 24 24 22 26 29 34 35 37 37 35 35 36 34
36 36 36 36 35 34 34 33 32 29 27 27 25 24 23 21 19 17 16 18 20 21 19 19 18 18 17 16 20 24 28 30 29 27 27 30 33 36 35 36 31 30 27
34 36 35 36 37 36 35 34 33 31 30 27 27 26 24 24 21 20 17 20 22 22 21 19 16 16 17 17 19 21 28 32 32 28 34 37 27 28 26 24 27 24 23
31 30 30 33 35 35 34 34 33 31 30 29 28 27 27 26 23 21 19 22 25 24 21 20 18 16 17 18 17 23 25 26 28 32 30 29 27 24 24 23 23 25 27
24 25 27 28 30 31 31 30 30 30 30 30 28 29 29 27 25 23 21 21 21 22 24 22 20 17 18 16 21 22 20 22 25 24 27 26 23 23 26 28 29 27 26
21 23 25 25 26 27 28 28 28 29 31 31 30 31 31 27 25 21 19 18 20 23 26 23 19 19 13 18 23 16 18 21 19 22 25 23 23 27 27 26 28 26 26
21 23 23 24 25 24 25 26 29 31 32 30 28 27 26 22 22 21 21 20 22 22 22 23 22 21 18 16 20 17 17 17 17 21 22 24 28 28 26 24 25 26 26
18 19 20 21 22 23 24 26 28 28 27 27 27 25 23 23 23 19 19 19 20 19 19 23 23 20 21 22 19 16 17 16 18 19 21 27 25 24 26 25 23 25 22
17 17 18 18 18 20 20 21 15 14 15 16 15 15 17 19 15 16 18 21 22 22 24 22 21 21 19 21 19 18 18 17 18 19 23 22 22 23 25 27 23 23 22
15 16 15 14 16 16 14 13 11 10 10 14 15 16 18 21 20 21 22 24 26 26 27 23 22 21 21 21 20 19 20 20 19 20 20 22 24 23 23 24 24 22 24
10 8 10 12 11 9 9 9 9 9 10 13 13 11 14 17 19 21 22 24 26 23 25 25 24 22 21 20 20 20 21 22 21 21 21 22 23 22 23 23 24 23 24
9 10 9 10 10 9 9 8 8 10 12 14 15 15 17 18 19 20 21 25 23 24 28 27 25 23 22 20 19 21 21 22 21 21 21 21 22 22 23 23 25 25 25
10 10 9 7 6 5 4 5 7 8 11 13 14 15 16 19 22 24 24 24 28 29 25 24 24 24 22 21 20 20 21 21 20 19 20 21 21 21 22 24 24 24 25
9 8 7 6 5 4 4 5 7 9 11 13 15 17 17 21 21 22 23 24 25 26 28 26 24 22 21 21 20 20 20 21 20 20 19 19 20 24 25 25 23 24 24
6 5 4 3 3 3 4 5 6 9 12 15 18 18 16 19 23 25 23 20 22 22 21 22 22 22 21 22 21 20 20 21 21 18 18 19 21 23 23 24 22 24 23
6 5 4 2 1 1 3 4 6 8 11 13 16 18 19 21 22 23 24 22 21 21 23 24 23 22 22 22 21 20 21 21 19 18 18 19 20 21 22 21 24 24 23
5 4 3 2 2 3 5 7 8 10 11 13 16 19 20 21 21 22 23 23 24 24 24 23 23 23 22 22 21 20 21 20 18 18 17 18 20 20 20 20 21 20 21
3 2 2 3 5 7 8 9 10 11 13 15 17 19 20 20 20 21 22 22 23 23 23 23 23 22 21 22 22 21 20 19 19 17 17 18 18 19 19 19 17 17 18
1 3 4 5 7 9 10 11 12 14 16 17 18 18 19 20 21 22 23 24 24 25 24 23 22 21 22 23 22 21 20 19 19 16 15 15 17 19 19 18 17 16 16